Weather History for Palm Springs, CA

Change the Weather History Date:

Saturday, February 16, 2013

  Actual Average Record
Temperature  
Mean Temperature 67 °F 60 °F  
Max Temperature 79 °F 73 °F 91 °F (1981)
Min Temperature 54 °F 48 °F 31 °F (1942)
Degree Days  
Heating Degree Days 0 5  
Month to date heating degree days 77 100  
Since 1 July heating degree days 653 727  
Cooling Degree Days 2 1  
Month to date cooling degree days 11 15  
Year to date cooling degree days 12 23  
Growing Degree Days 18 (Base 50)    
Moisture  
Dew Point 16 °F    
Average Humidity 17    
Maximum Humidity 28    
Minimum Humidity 6    
Precipitation  
Precipitation 0.00 in 0.05 in 0.75 in (1932)
Month to date precipitation 0.03 0.51  
Year to date precipitation 0.64 1.51  
Since 1 July precipitation 1.86 4.31  
Snow  
Snow 0.00 in - - ()
Month to date snowfall 0.0  
Year to date snowfall 0.0  
Since 1 July snowfall 0.0  
Snow Depth 0.00 in    
Sea Level Pressure  
Sea Level Pressure 30.11 in    
Wind  
Wind Speed 5 mph (WNW)    
Max Wind Speed 10 mph    
Max Gust Speed 14 mph    
Visibility 10 miles    
Events      
T = Trace of Precipitation, MM = Missing Value Source: NWS Daily Summary

Daily Weather History Graph

Daily Weather History Graph

Search for Another Location

Airport:

Trip Planner

Search our weather history database for the weather conditions in past years. The results will help you decide how hot, cold, wet, or windy it might be!

Date:

Astronomy

Feb. 16, 2013 Rise Set
Actual Time 6:29 AM PST 5:31 PM PST
Civil Twilight 6:03 AM PST 5:56 PM PST
Nautical Twilight 5:34 AM PST 6:26 PM PST
Astronomical Twilight 5:05 AM PST 6:55 PM PST
Moon 10:05 AM PST (2/16) No Moon Set
Length of Visible Light 11h 53m
Length of Day
11h 02m
Waxing Crescent, 40% of the Moon is Illuminated
Feb 16
Waxing Crescent
Feb 17
First Quarter
Feb 25
Full
Mar 4
Last Quarter
Mar 11
New

Hourly Weather History & Observations

Time (PST) Temp. Dew Point Humidity Pressure Visibility Wind Dir Wind Speed Gust Speed Precip Events Conditions
12:53 AM 62.1 °F 16.0 °F 17% 30.23 in 10.0 mi WSW 6.9 mph - N/A   Clear
1:53 AM 60.1 °F 16.0 °F 18% 30.22 in 10.0 mi WSW 6.9 mph - N/A   Clear
2:53 AM 57.0 °F 19.9 °F 24% 30.20 in 10.0 mi West 3.5 mph - N/A   Clear
3:53 AM 61.0 °F 14.0 °F 16% 30.20 in 10.0 mi West 4.6 mph - N/A   Clear
4:53 AM 61.0 °F 15.1 °F 17% 30.19 in 10.0 mi West 6.9 mph - N/A   Clear
5:53 AM 59.0 °F 17.1 °F 20% 30.20 in 10.0 mi West 5.8 mph - N/A   Clear
6:53 AM 59.0 °F 18.0 °F 20% 30.22 in 10.0 mi Calm Calm - N/A   Clear
7:53 AM 57.9 °F 24.1 °F 27% 30.23 in 10.0 mi Calm Calm - N/A   Scattered Clouds
8:53 AM 66.9 °F 21.0 °F 17% 30.22 in 10.0 mi Calm Calm - N/A   Clear
9:53 AM 72.0 °F 16.0 °F 12% 30.21 in 10.0 mi Calm Calm - N/A   Clear
10:53 AM 75.0 °F 16.0 °F 11% 30.19 in 10.0 mi Variable 3.5 mph - N/A   Clear
11:53 AM 75.9 °F 15.1 °F 10% 30.15 in 10.0 mi SE 5.8 mph - N/A   Clear
12:53 PM 78.1 °F 8.1 °F 7% 30.10 in 10.0 mi SE 8.1 mph - N/A   Mostly Cloudy
1:53 PM 78.1 °F 5.0 °F 6% 30.06 in 10.0 mi ESE 10.4 mph - N/A   Clear
2:53 PM 78.1 °F 8.1 °F 7% 30.03 in 10.0 mi East 8.1 mph - N/A   Scattered Clouds
3:53 PM 78.1 °F 10.0 °F 7% 30.00 in 10.0 mi East 8.1 mph - N/A   Scattered Clouds
4:53 PM 75.9 °F 12.0 °F 9% 29.99 in 10.0 mi East 5.8 mph - N/A   Scattered Clouds
5:53 PM 71.1 °F 19.0 °F 14% 29.99 in 10.0 mi Calm Calm - N/A   Clear
6:53 PM 68.0 °F 18.0 °F 15% 29.99 in 10.0 mi WNW 3.5 mph - N/A   Clear
7:53 PM 61.0 °F 16.0 °F 17% 29.99 in 10.0 mi NNW 8.1 mph - N/A   Clear
8:53 PM 61.0 °F 19.0 °F 20% 29.99 in 10.0 mi NNW 8.1 mph - N/A   Clear
9:53 PM 61.0 °F 16.0 °F 17% 29.99 in 10.0 mi NNW 5.8 mph - N/A   Clear
10:53 PM 59.0 °F 16.0 °F 19% 29.97 in 10.0 mi NW 10.4 mph - N/A   Clear
11:53 PM 55.9 °F 19.9 °F 25% 29.96 in 10.0 mi NNW 4.6 mph - N/A   Clear